When you browse on this site, cookies collect data to enhance your experience and personalize the content and advertising you see.
Visit our Privacy Policy to learn more. By continuing to use the site, you agree to this use of cookies and data.
  • In United Kingdom
  • List of Countries
  • For 7 days
  • Water Temperature
  • Satellite Maps
  • Weather Map
  • Weather Widgets
  • user-avatar
    Login

    Hourly Weather Bansko

    Today, 16 June, Sunday

    Time Temperature Precipitation Wind Pressure Humidity
    00:00 +20°C° 0 mm 1 mps 720 mmHg 78%
    01:00 +20°C° 0 mm 1 mps 720 mmHg 78%
    02:00 +20°C° 0 mm 1 mps 720 mmHg 77%
    03:00 +19°C° 0.1 mm 1 mps 720 mmHg 76%
    04:00 +19°C° 0.1 mm 1 mps 719 mmHg 76%
    05:00 +19°C° 0.1 mm 1 mps 719 mmHg 75%
    06:00 +21°C° 0 mm 1 mps 719 mmHg 72%
    07:00 +23°C° 0 mm 1 mps 720 mmHg 69%
    08:00 +25°C° 0 mm 1 mps 720 mmHg 67%
    09:00 +26°C° 0.2 mm 1 mps 720 mmHg 64%
    10:00 +27°C° 0.2 mm 1 mps 720 mmHg 61%
    11:00 +29°C° 0.2 mm 1 mps 720 mmHg 57%
    12:00 +29°C° 0.6 mm 1 mps 720 mmHg 55%
    13:00 +29°C° 0.6 mm 1 mps 720 mmHg 54%
    14:00 +30°C° 0.6 mm 1 mps 720 mmHg 52%
    15:00 +29°C° 0.5 mm 1 mps 719 mmHg 54%
    16:00 +29°C° 0.5 mm 1 mps 719 mmHg 57%
    17:00 +29°C° 0.5 mm 1 mps 718 mmHg 59%
    18:00 +27°C° 0.3 mm 1 mps 718 mmHg 66%
    19:00 +24°C° 0.3 mm 1 mps 719 mmHg 73%
    20:00 +22°C° 0.3 mm 1 mps 719 mmHg 80%
    21:00 +22°C° 0.5 mm 1 mps 719 mmHg 81%
    22:00 +21°C° 0.5 mm 1 mps 719 mmHg 83%
    23:00 +20°C° 0.5 mm 1 mps 719 mmHg 84%

    Tomorrow, 17 June, Monday

    Time Temperature Precipitation Wind Pressure Humidity
    00:00 +20°C° 0.2 mm 1 mps 719 mmHg 84%
    01:00 +20°C° 0.2 mm 1 mps 719 mmHg 84%
    02:00 +17°C° 0.2 mm 0 mps 719 mmHg 84%
    03:00 +19°C° 0 mm 1 mps 719 mmHg 84%
    04:00 +19°C° 0 mm 1 mps 719 mmHg 85%
    05:00 +19°C° 0 mm 1 mps 718 mmHg 85%
    06:00 +20°C° 0 mm 1 mps 719 mmHg 81%
    07:00 +22°C° 0 mm 1 mps 719 mmHg 78%
    08:00 +24°C° 0 mm 1 mps 720 mmHg 74%
    09:00 +25°C° 0.3 mm 1 mps 720 mmHg 69%
    10:00 +27°C° 0.3 mm 1 mps 720 mmHg 64%
    11:00 +28°C° 0.3 mm 1 mps 720 mmHg 59%
    12:00 +29°C° 0.6 mm 1 mps 720 mmHg 57%
    13:00 +29°C° 0.6 mm 1 mps 720 mmHg 54%
    14:00 +30°C° 0.6 mm 1 mps 720 mmHg 52%
    15:00 +29°C° 0.5 mm 1 mps 720 mmHg 54%
    16:00 +29°C° 0.5 mm 1 mps 719 mmHg 57%
    17:00 +28°C° 0.5 mm 1 mps 719 mmHg 60%
    18:00 +26°C° 0.6 mm 1 mps 719 mmHg 67%
    19:00 +25°C° 0.6 mm 1 mps 719 mmHg 74%
    20:00 +23°C° 0.6 mm 1 mps 719 mmHg 80%
    21:00 +22°C° 0.5 mm 1 mps 719 mmHg 82%
    22:00 +21°C° 0.5 mm 1 mps 719 mmHg 83%
    23:00 +20°C° 0.5 mm 1 mps 720 mmHg 85%

    Day after tomorrow, 18 June, Tuesday

    Time Temperature Precipitation Wind Pressure Humidity
    00:00 +20°C° 0.1 mm 1 mps 719 mmHg 86%
    01:00 +20°C° 0.1 mm 1 mps 719 mmHg 86%
    02:00 +19°C° 0.1 mm 1 mps 719 mmHg 87%
    03:00 +19°C° 0 mm 1 mps 719 mmHg 87%
    04:00 +19°C° 0 mm 1 mps 719 mmHg 87%
    05:00 +18°C° 0 mm 1 mps 719 mmHg 87%
    06:00 +20°C° 0 mm 1 mps 719 mmHg 84%
    07:00 +22°C° 0 mm 1 mps 720 mmHg 80%
    08:00 +23°C° 0 mm 1 mps 720 mmHg 77%
    09:00 +25°C° 0.3 mm 1 mps 720 mmHg 72%
    10:00 +26°C° 0.3 mm 1 mps 720 mmHg 68%
    11:00 +28°C° 0.3 mm 1 mps 721 mmHg 63%
    12:00 +28°C° 0.7 mm 1 mps 720 mmHg 60%
    13:00 +29°C° 0.7 mm 2 mps 720 mmHg 57%
    14:00 +30°C° 0.7 mm 2 mps 720 mmHg 55%
    15:00 +29°C° 0.7 mm 1 mps 719 mmHg 56%
    16:00 +29°C° 0.7 mm 1 mps 719 mmHg 58%
    17:00 +28°C° 0.7 mm 1 mps 719 mmHg 59%
    18:00 +26°C° 0.3 mm 1 mps 719 mmHg 65%
    19:00 +24°C° 0.3 mm 1 mps 719 mmHg 71%
    20:00 +22°C° 0.3 mm 1 mps 719 mmHg 76%
    21:00 +22°C° 0.7 mm 1 mps 719 mmHg 79%
    22:00 +21°C° 0.7 mm 1 mps 719 mmHg 81%
    23:00 +20°C° 0.7 mm 1 mps 720 mmHg 84%

    19 June, Wednesday

    Time Temperature Precipitation Wind Pressure Humidity
    00:00 +19°C° 0.1 mm 1 mps 719 mmHg 84%
    01:00 +19°C° 0.1 mm 1 mps 719 mmHg 84%
    02:00 +19°C° 0.1 mm 1 mps 719 mmHg 84%
    03:00 +18°C° 0 mm 1 mps 719 mmHg 85%
    04:00 +18°C° 0 mm 1 mps 719 mmHg 85%
    05:00 +18°C° 0 mm 1 mps 718 mmHg 86%
    06:00 +20°C° 0 mm 1 mps 719 mmHg 82%
    07:00 +21°C° 0 mm 1 mps 719 mmHg 78%
    08:00 +23°C° 0 mm 1 mps 720 mmHg 75%
    09:00 +25°C° 0.1 mm 1 mps 720 mmHg 69%
    10:00 +26°C° 0.1 mm 1 mps 720 mmHg 63%
    11:00 +27°C° 0.1 mm 1 mps 720 mmHg 58%
    12:00 +28°C° 0.2 mm 1 mps 719 mmHg 56%
    13:00 +28°C° 0.2 mm 1 mps 719 mmHg 55%
    14:00 +29°C° 0.2 mm 1 mps 719 mmHg 54%
    15:00 +28°C° 0.6 mm 1 mps 719 mmHg 60%
    16:00 +28°C° 0.6 mm 1 mps 718 mmHg 65%
    17:00 +27°C° 0.6 mm 1 mps 718 mmHg 71%
    18:00 +25°C° 0.5 mm 1 mps 718 mmHg 74%
    19:00 +24°C° 0.5 mm 1 mps 718 mmHg 78%
    20:00 +22°C° 0.5 mm 1 mps 718 mmHg 81%
    21:00 +22°C° 0 mm 1 mps 718 mmHg 82%
    22:00 +21°C° 0 mm 1 mps 718 mmHg 84%
    23:00 +20°C° 0 mm 1 mps 719 mmHg 85%

    20 June, Thursday

    Time Temperature Precipitation Wind Pressure Humidity
    00:00 +20°C° 0 mm 1 mps 718 mmHg 85%
    01:00 +19°C° 0 mm 1 mps 718 mmHg 86%
    02:00 +17°C° 0 mm 0 mps 718 mmHg 87%
    03:00 +17°C° 0 mm 0 mps 718 mmHg 87%
    04:00 +17°C° 0 mm 0 mps 718 mmHg 87%
    05:00 +17°C° 0 mm 0 mps 718 mmHg 87%
    06:00 +18°C° 0 mm 0 mps 718 mmHg 83%
    07:00 +20°C° 0 mm 0 mps 718 mmHg 80%
    08:00 +22°C° 0 mm 0 mps 719 mmHg 76%
    09:00 +25°C° 0.3 mm 1 mps 719 mmHg 71%
    10:00 +27°C° 0.3 mm 1 mps 719 mmHg 66%
    11:00 +28°C° 0.3 mm 1 mps 719 mmHg 61%
    12:00 +28°C° 0.7 mm 1 mps 719 mmHg 60%
    13:00 +29°C° 0.7 mm 1 mps 718 mmHg 59%
    14:00 +29°C° 0.7 mm 1 mps 718 mmHg 58%
    15:00 +29°C° 1 mm 1 mps 718 mmHg 61%
    16:00 +28°C° 1 mm 1 mps 718 mmHg 63%
    17:00 +28°C° 1 mm 1 mps 718 mmHg 65%
    18:00 +26°C° 0.6 mm 1 mps 718 mmHg 70%
    19:00 +24°C° 0.6 mm 1 mps 718 mmHg 75%
    20:00 +21°C° 0.6 mm 0 mps 718 mmHg 80%
    21:00 +22°C° 0.8 mm 1 mps 718 mmHg 82%
    22:00 +21°C° 0.8 mm 1 mps 718 mmHg 83%
    23:00 +20°C° 0.8 mm 1 mps 718 mmHg 85%

    21 June, Friday

    Time Temperature Precipitation Wind Pressure Humidity
    00:00 +20°C° 0.3 mm 1 mps 718 mmHg 86%
    01:00 +20°C° 0.3 mm 1 mps 718 mmHg 87%
    02:00 +19°C° 0.3 mm 1 mps 718 mmHg 87%
    03:00 +19°C° 0.1 mm 1 mps 718 mmHg 87%
    04:00 +17°C° 0.1 mm 0 mps 718 mmHg 88%
    05:00 +16°C° 0.1 mm 0 mps 718 mmHg 88%
    06:00 +20°C° 0 mm 1 mps 719 mmHg 85%
    07:00 +22°C° 0 mm 1 mps 719 mmHg 81%
    08:00 +23°C° 0 mm 1 mps 719 mmHg 78%
    09:00 +25°C° 0.4 mm 1 mps 719 mmHg 74%
    10:00 +26°C° 0.4 mm 1 mps 720 mmHg 69%
    11:00 +28°C° 0.4 mm 1 mps 720 mmHg 64%
    12:00 +28°C° 1.3 mm 1 mps 720 mmHg 63%
    13:00 +29°C° 1.3 mm 1 mps 719 mmHg 61%
    14:00 +29°C° 1.3 mm 1 mps 719 mmHg 60%
    15:00 +29°C° 1 mm 1 mps 719 mmHg 61%
    16:00 +29°C° 1 mm 1 mps 719 mmHg 62%
    17:00 +28°C° 1 mm 1 mps 719 mmHg 63%
    18:00 +27°C° 0.6 mm 1 mps 719 mmHg 69%
    19:00 +25°C° 0.6 mm 1 mps 719 mmHg 75%
    20:00 +23°C° 0.6 mm 1 mps 719 mmHg 80%
    21:00 +22°C° 0.3 mm 1 mps 719 mmHg 81%
    22:00 +22°C° 0.3 mm 1 mps 719 mmHg 82%
    23:00 +21°C° 0.3 mm 1 mps 720 mmHg 84%
    Show more